Location: Unspecified
(42.3650°N, 71.1030°W)
Time: 15:59:42
(UTC+00:00)

Transit 4A - Pass Details

Date: 27 June 2024
Orbit: 870 x 973 km, 66.8° (Epoch: 17 July)

Event Time Altitude Azimuth Distance (km) Brightness Sun altitude
Rises 03:56:21 0° 264° (W) 3,457 11.0 -23.3°
Reaches altitude 10° 03:59:52 10° 286° (WNW) 2,518 10.5 -23.4°
Maximum altitude 04:03:23 16° 323° (NW) 2,116 10.5 -23.5°
Drops below altitude 10° 04:06:54 10° 1° (N) 2,531 11.2 -23.7°
Sets 04:10:29 0° 22° (NNE) 3,483 11.8 -23.8°
